#timestamp,LO_Frequency,Hit,StdDev 
1584226815.7,286046999.4,N
1584226835.5,286047002.7,N
1584226855.3,286047000.0,N
1584226875.2,286047002.4,N
1584226895.0,286047002.2,N
1584226895.9,286047002.2,N
1584226915.8,286047004.0,N
1584226935.6,286047003.3,N
1584226955.4,286047003.3,N
1584226975.3,286047001.9,N
1584226995.1,286047002.7,N
1584227015.9,286047000.4,N
1584227035.7,286047000.3,N
1584227055.5,286047003.3,N
1584227075.4,286047002.7,N
1584227095.2,286047000.9,N
1584227115.0,286047002.4,N
1584227116.0,286047002.4,N
1584227135.8,286047002.4,N
1584227155.6,286047011.9,Y
1584227175.5,286047001.2,P
1584227195.3,286046998.9,P
1584227215.1,286046999.9,N
1584227235.9,286047002.7,N
1584227255.7,286046998.1,N
1584227275.6,286047001.2,N
1584227295.4,286046999.4,N
1584227315.2,286047000.8,N
1584227335.1,286047001.9,N
1584227336.0,286047001.9,N
1584227355.8,286047002.5,N
1584227375.7,286047001.7,N
1584227395.5,286047001.5,N
1584227415.3,286047003.6,N
1584227435.2,286047001.5,N
1584227455.0,286047001.5,N
1584227455.9,286047001.5,N
1584227475.8,286047004.4,Y
1584227495.6,286047002.0,P
1584227515.4,286047004.0,P
1584227535.3,286047001.3,N
1584227555.1,286046998.2,N
1584227575.8,286047000.6,N
1584227595.7,286047001.1,N
1584227615.5,286047000.6,N
1584227635.4,286046999.7,N
1584227655.2,286047001.1,N
1584227675.0,286046998.5,N
1584227675.9,286046998.5,N
1584227695.8,286047000.5,N
1584227715.6,286047000.1,N
1584227735.4,286047002.7,N
1584227755.3,286047000.7,N
1584227775.1,286047001.0,N
1584227795.9,286046999.5,N
1584227815.7,286046996.6,N
1584227835.5,286046996.6,N
1584227855.4,286046997.0,N
1584227875.2,286046999.3,N
1584227895.1,286046998.2,N
1584227896.0,286046998.2,N
1584227915.8,286047000.6,N
1584227935.6,286046999.9,N
1584227955.5,286047000.3,N
1584227975.3,286047000.0,N
1584227995.1,286047004.0,N
1584228015.9,286047001.3,N
1584228035.7,286047004.4,N
1584228055.6,286047001.5,N
1584228075.4,286047001.9,N
1584228095.2,286047004.4,N
1584228115.1,286047004.3,N
1584228116.0,286047004.3,N
1584228135.8,286047004.0,N
1584228155.7,286047004.4,N
1584228175.5,286047001.4,N
1584228195.3,286047002.6,N
1584228215.2,286047002.8,N
1584228235.0,286047004.4,N
1584228235.9,286047004.4,N
1584228255.8,286047004.7,N
1584228275.6,286047005.5,N
1584228295.4,286047004.4,N
1584228315.3,286047003.3,N
1584228335.1,286046999.0,N
1584228355.8,286046998.7,N
1584228375.7,286047001.0,N
1584228395.5,286047002.1,N
1584228415.4,286047001.5,N
1584228435.2,286047002.1,N
1584228455.0,286047001.8,N
1584228455.9,286047001.8,N
1584228475.8,286047000.0,N
1584228495.6,286046999.3,N
1584228515.5,286046998.7,N
1584228535.3,286047000.1,N
1584228555.1,286047002.2,N
1584228575.9,286047004.0,N
1584228595.7,286047004.0,N
1584228615.6,286047001.6,N
1584228635.4,286047002.5,N
1584228655.3,286047001.4,N
1584228675.1,286047002.5,N
1584228676.0,286047002.5,N
1584228695.8,286047002.8,N
1584228715.7,286047001.7,N
1584228735.5,286047002.5,N
1584228755.3,286047001.0,N
1584228775.2,286046999.8,N
1584228795.0,286047002.1,N
1584228795.9,286047002.1,N
1584228815.8,286047000.1,N
1584228835.6,286046999.7,N
1584228855.5,286047006.0,Y
1584228875.3,286047003.9,P
1584228895.1,286047003.7,N
1584228915.9,286047001.8,N
1584228935.7,286047001.5,N
1584228955.6,286047002.6,N
1584228975.4,286047002.8,N
1584228995.2,286047000.0,N
1584229015.1,286047002.2,N
1584229016.0,286047002.2,N
1584229035.8,286047000.7,N
1584229055.6,286046998.9,N
1584229075.5,286047002.4,N
1584229095.3,286047004.4,Y
1584229115.2,286046998.5,P
1584229135.0,286046996.5,N
1584229135.9,286046996.5,N
1584229155.7,286046996.2,N
1584229175.6,286046995.0,N
1584229195.4,286047000.7,N
1584229215.3,286047000.7,N
1584229235.1,286047001.2,N
1584229255.8,286047000.0,N
1584229275.7,286047002.6,N
1584229295.5,286047000.8,N
1584229315.4,286046998.8,N
1584229335.2,286046999.1,N
1584229355.0,286046999.1,N
1584229355.9,286046999.1,N
1584229375.8,286046999.6,N
1584229395.6,286046997.2,N
1584229415.4,286046999.0,N
1584229435.3,286046998.7,N
1584229455.1,286046998.2,N
1584229475.9,286047000.7,N
1584229495.7,286046999.3,N
1584229515.5,286046996.5,N
1584229535.4,286046995.6,N
1584229555.2,286046997.5,N
1584229575.1,286046995.1,N
1584229576.0,286046995.1,N
1584229595.8,286046996.1,N
1584229615.6,286046993.4,Y
1584229635.5,286046996.4,P
1584229655.3,286046996.0,P
1584229675.2,286046995.4,P
1584229695.9,286046996.3,Y
1584229715.7,286046996.5,P
1584229735.6,286046998.8,P
1584229755.4,286046996.6,P
1584229775.3,286046996.6,Y
1584229795.1,286047000.2,P
1584229796.0,286047000.2,N
1584229815.8,286047000.4,N
1584229835.7,286046999.9,N
1584229855.5,286046998.5,N
1584229875.3,286046998.1,N
1584229895.2,286047000.7,N
1584229915.0,286046999.6,N
1584229915.9,286046999.6,N
1584229935.8,286046997.8,N
1584229955.6,286046999.4,N
1584229975.4,286046998.7,N
1584229995.3,286046996.5,Y
1584230015.1,286046998.9,P
1584230035.9,286046999.5,P
1584230055.7,286046996.9,P
1584230075.5,286046998.9,N
1584230095.4,286046996.7,Y
1584230115.2,286046996.9,P
1584230135.0,286046999.5,N
1584230136.0,286046999.5,N
1584230155.8,286046996.6,Y
1584230175.6,286046999.5,P
1584230195.5,286046997.2,P
1584230215.3,286046996.6,P
1584230235.1,286046996.8,N
1584230255.9,286046999.6,N
1584230275.7,286046996.5,N
1584230295.6,286046998.9,N
1584230315.4,286046995.0,Y
1584230335.2,286047000.7,P
1584230355.1,286046999.3,N
1584230356.0,286046999.3,N
1584230375.8,286046998.7,N
1584230395.7,286046999.1,N
